Flag for U.S.A. Weather past 2 weeks in Metairie, Louisiana, U.S.A.

Now
81 °F

Passing clouds.


Feels Like: 87 °F
Forecast: 79 / 89 °F
Wind: 6 mph from Southeast

Location: New Orleans International Airport

Current Time: Aug 28, 2014 at 12:40:33 AM

Latest Report: Aug 27, 2014 at 11:53 PM


Visibility: 10 mi

Pressure: 30.00 "Hg

Humidity: 82%

Dew point: 75 °F

Location of MetairieLocation

Historic Weather in Metairie — Graph

°F

Metairie temperature yesterday

Maximum temperature yesterday: 90 °F (at 2:53 PM)
Minimum temperature yesterday: 81 °F (at 12:53 AM)
Average temperature yesterday: 84 °F

Past Weeks' High & Low Weather Summary

 TemperatureHumidityPressure
High95 °F (Aug 23, 2:53 PM)94% (Aug 23, 6:53 AM)30.15 "Hg (Aug 23, 6:53 AM)
Low74 °F (Aug 15, 5:53 AM)33% (Aug 22, 5:53 PM)29.85 "Hg (Aug 24, 6:53 PM)
Average84 °F70%30.00 "Hg
* Reported Aug 12 10:53 PM — Aug 27 10:53 PM, Metairie, Weather by CustomWeather, © 2014

Note: Actual official high and low records may vary slightly from our data, if they occured in-between our weather recording intervals... More about our weather records

Advertising

Metairie weather history for previous 24 hours

 ConditionsComfort  
Time TempWeatherWind HumidityBarometerVisibility
10:53 PM
Aug 27
82 °FPassing clouds.5 mph77%30.00 "Hg10 mi
9:53 PM83 °FPassing clouds.5 mph77%30.00 "Hg10 mi
8:53 PM83 °FPassing clouds.6 mph77%29.98 "Hg10 mi
7:53 PM84 °FPartly sunny.6 mph74%29.99 "Hg10 mi
6:53 PM85 °FOvercast.7 mph70%29.98 "Hg10 mi
5:53 PM85 °FBroken clouds.7 mph68%29.97 "Hg10 mi
4:53 PM86 °FBroken clouds.8 mph67%29.98 "Hg10 mi
3:53 PM87 °FBroken clouds.10 mph65%29.99 "Hg10 mi
2:53 PM90 °FBroken clouds.12 mph56%30.00 "Hg10 mi
1:53 PM89 °FBroken clouds.12 mph59%30.01 "Hg10 mi
12:53 PM89 °FBroken clouds.9 mph57%30.01 "Hg10 mi
11:53 AM89 °FPartly sunny.13 mph61%30.03 "Hg10 mi
10:53 AM86 °FBroken clouds.12 mph67%30.03 "Hg10 mi
9:53 AM86 °FBroken clouds.14 mph67%30.02 "Hg10 mi
8:53 AM85 °FScattered clouds.13 mph72%30.01 "Hg10 mi
7:53 AM84 °FScattered clouds.13 mph74%30.01 "Hg10 mi
6:53 AM82 °FPassing clouds.8 mph79%29.99 "Hg10 mi
5:53 AM81 °FPartly cloudy.8 mph85%29.97 "Hg10 mi
4:53 AM81 °FPassing clouds.6 mph79%29.97 "Hg10 mi
3:53 AM81 °FPassing clouds.3 mph79%29.97 "Hg10 mi
2:53 AM81 °FPassing clouds.5 mph79%29.97 "Hg10 mi
1:53 AM81 °FClear.3 mph79%29.98 "Hg10 mi
12:53 AM81 °FPassing clouds.3 mph79%29.99 "Hg10 mi
Weather by CustomWeather, © 2014

See weather overviewHow to use our weather pages